St. Joseph, KS

1:33 AM CST on December 16, 2019 (GMT -0600)
Rosecrans Memorial

Weather History for KSTJ - October, 2019

Change the Weather History Date:

Saturday, October 26, 2019

  Actual Average Record
Temperature  
Mean Temperature 45 °F 51 °F  
Max Temperature 60 °F 63 °F 88 °F (2014)
Min Temperature 30 °F 39 °F 23 °F (1942)
Degree Days  
Heating Degree Days 20 14  
Month to date heating degree days 297 261  
Since 1 July heating degree days 302 341  
Cooling Degree Days 0 0  
Month to date cooling degree days 17 18  
Year to date cooling degree days 1466 1217  
Moisture  
Dew Point 35 °F    
Average Humidity 70    
Maximum Humidity 93    
Minimum Humidity 47    
Precipitation  
Precipitation 0.00 in 0.09 in 1.77 in (1918)
Month to date precipitation 3.14 2.41  
Year to date precipitation 36.74 32.13  
Sea Level Pressure  
Sea Level Pressure 29.88 in    
Wind  
Wind Speed 2 mph (SW)    
Max Wind Speed 12 mph    
Max Gust Speed 16 mph    
Visibility 9 miles    
Events      
T = Trace of Precipitation, MM = Missing Value Source: NWS Daily Summary

Daily Weather History Graph

Daily Weather History Graph

Search for Another Location

Airport or City:

Astronomy

Oct. 26, 2019 Rise Set
Actual Time 7:41 AM CDT 6:25 PM CDT
Civil Twilight 7:13 AM CDT 6:52 PM CDT
Nautical Twilight 6:42 AM CDT 7:24 PM CDT
Astronomical Twilight 6:10 AM CDT 7:55 PM CDT
Moon 5:38 AM CDT (10/26) 6:00 PM CDT (10/26)
Length of Visible Light 11h 39m
Length of Day
10h 43m
Waning Crescent, 3% of the Moon is Illuminated
Oct 26
Waning Crescent
Oct 27
New
Nov 4
First Quarter
Nov 12
Full
Nov 19
Last Quarter

Hourly Weather History & Observations

Time (CDT) Temp. Windchill Dew Point Humidity Pressure Visibility Wind Dir Wind Speed Gust Speed Precip Events Conditions
12:53 AM 32.0 °F - 28.9 °F 88% 30.14 in 10.0 mi Calm Calm - N/A   Clear
1:53 AM 33.1 °F - 28.9 °F 85% 30.13 in 7.0 mi Calm Calm - N/A   Clear
2:53 AM 32.0 °F - 28.9 °F 88% 30.10 in 10.0 mi Calm Calm - N/A   Clear
3:53 AM 32.0 °F - 28.9 °F 88% 30.07 in 10.0 mi Calm Calm - N/A   Clear
4:53 AM 30.9 °F 24.3 °F 28.9 °F 92% 30.04 in 9.0 mi NNE 6.9 mph - N/A   Clear
5:53 AM 30.0 °F 26.5 °F 28.0 °F 92% 30.01 in 10.0 mi NW 3.5 mph - N/A   Clear
6:53 AM 30.9 °F - 28.0 °F 89% 29.99 in 9.0 mi Calm Calm - N/A   Clear
7:53 AM 33.1 °F - 30.0 °F 89% 29.97 in 10.0 mi Calm Calm - N/A   Clear
8:53 AM 36.0 °F 33.3 °F 33.1 °F 89% 29.94 in 10.0 mi NW 3.5 mph - N/A   Clear
9:53 AM 42.1 °F - 36.0 °F 79% 29.93 in 10.0 mi Calm Calm - N/A   Clear
10:53 AM 48.0 °F - 36.0 °F 63% 29.92 in 9.0 mi Variable 4.6 mph - N/A   Clear
11:53 AM 51.1 °F - 37.0 °F 59% 29.89 in 10.0 mi East 6.9 mph - N/A   Clear
12:53 PM 53.1 °F - 36.0 °F 52% 29.85 in 10.0 mi Calm Calm - N/A   Clear
1:53 PM 57.0 °F - 37.9 °F 49% 29.79 in 10.0 mi SW 4.6 mph - N/A   Clear
2:53 PM 57.9 °F - 37.9 °F 47% 29.75 in 10.0 mi Calm Calm - N/A   Clear
3:53 PM 59.0 °F - 39.0 °F 48% 29.74 in 10.0 mi Calm Calm - N/A   Clear
4:53 PM 60.1 °F - 41.0 °F 49% 29.73 in 10.0 mi South 3.5 mph - N/A   Clear
5:53 PM 57.0 °F - 41.0 °F 55% 29.73 in 10.0 mi SSW 5.8 mph - N/A   Clear
6:53 PM 50.0 °F - 42.1 °F 74% 29.73 in 10.0 mi SSW 3.5 mph - N/A   Clear
7:53 PM 46.9 °F - 42.1 °F 83% 29.74 in 9.0 mi Calm Calm - N/A   Clear
8:53 PM 44.1 °F - 41.0 °F 89% 29.74 in 10.0 mi Calm Calm - N/A   Clear
9:53 PM 39.9 °F - 37.0 °F 89% 29.74 in 8.0 mi Calm Calm - N/A   Clear
10:53 PM 39.0 °F - 37.0 °F 93% 29.75 in 7.0 mi Calm Calm - N/A   Clear
11:53 PM 39.0 °F - 37.0 °F 93% 29.76 in 6.0 mi Calm Calm - N/A   Clear